owner,sensor,date,latitude,longitude,vertical_datum,sea_water_practical_salinity,qcFlag 
DISL,ioos:station:DISL:CATA:1,2010-05-01T00:00:00Z,30.3085,-88.1395,2.221,16.0,1111122 
DISL,ioos:station:DISL:CATA:1,2010-05-01T00:30:00Z,30.3085,-88.1395,2.193,16.16,1111122 
DISL,ioos:station:DISL:CATA:1,2010-05-01T01:00:00Z,30.3085,-88.1395,2.176,16.05,1111122 
DISL,ioos:station:DISL:CATA:1,2010-05-01T01:30:00Z,30.3085,-88.1395,2.159,16.02,1111122 
DISL,ioos:station:DISL:CATA:1,2010-05-01T02:00:00Z,30.3085,-88.1395,2.155,16.08,1111122 
DISL,ioos:station:DISL:CATA:1,2010-05-01T02:30:00Z,30.3085,-88.1395,2.144,16.14,1111122 
DISL,ioos:station:DISL:CATA:1,2010-05-01T03:00:00Z,30.3085,-88.1395,2.131,16.1,1111122 
DISL,ioos:station:DISL:CATA:1,2010-05-01T03:30:00Z,30.3085,-88.1395,2.133,15.93,1111122 
DISL,ioos:station:DISL:CATA:1,2010-05-01T04:00:00Z,30.3085,-88.1395,2.13,15.81,1111122 
DISL,ioos:station:DISL:CATA:1,2010-05-01T04:30:00Z,30.3085,-88.1395,2.137,15.71,1111122 
DISL,ioos:station:DISL:CATA:1,2010-05-01T05:00:00Z,30.3085,-88.1395,2.133,15.7,1111122 
DISL,ioos:station:DISL:CATA:1,2010-05-01T05:30:00Z,30.3085,-88.1395,2.145,15.68,1111122 
DISL,ioos:station:DISL:CATA:1,2010-05-01T06:00:00Z,30.3085,-88.1395,2.167,15.66,1111122 
DISL,ioos:station:DISL:CATA:1,2010-05-01T06:30:00Z,30.3085,-88.1395,2.196,15.66,1111122 
DISL,ioos:station:DISL:CATA:1,2010-05-01T07:00:00Z,30.3085,-88.1395,2.226,15.66,1111122 
DISL,ioos:station:DISL:CATA:1,2010-05-01T07:30:00Z,30.3085,-88.1395,2.247,15.9,1111122 
DISL,ioos:station:DISL:CATA:1,2010-05-01T08:00:00Z,30.3085,-88.1395,2.269,16.1,1111122 
DISL,ioos:station:DISL:CATA:1,2010-05-01T08:30:00Z,30.3085,-88.1395,2.298,16.08,1111122 
DISL,ioos:station:DISL:CATA:1,2010-05-01T09:00:00Z,30.3085,-88.1395,2.34,16.07,1111122 
DISL,ioos:station:DISL:CATA:1,2010-05-01T09:30:00Z,30.3085,-88.1395,2.38,16.09,1111122 
DISL,ioos:station:DISL:CATA:1,2010-05-01T10:00:00Z,30.3085,-88.1395,2.413,16.42,1111122 
DISL,ioos:station:DISL:CATA:1,2010-05-01T10:30:00Z,30.3085,-88.1395,2.44,16.74,1111122 
DISL,ioos:station:DISL:CATA:1,2010-05-01T11:00:00Z,30.3085,-88.1395,2.456,16.99,1111122 
DISL,ioos:station:DISL:CATA:1,2010-05-01T11:30:00Z,30.3085,-88.1395,2.514,16.98,1111122 
DISL,ioos:station:DISL:CATA:1,2010-05-01T12:00:00Z,30.3085,-88.1395,2.556,16.97,1111122 
DISL,ioos:station:DISL:CATA:1,2010-05-01T12:30:00Z,30.3085,-88.1395,2.596,16.68,1111122 
DISL,ioos:station:DISL:CATA:1,2010-05-01T13:00:00Z,30.3085,-88.1395,2.625,16.45,1111122 
DISL,ioos:station:DISL:CATA:1,2010-05-01T13:30:00Z,30.3085,-88.1395,2.659,16.41,1111122 
DISL,ioos:station:DISL:CATA:1,2010-05-01T14:00:00Z,30.3085,-88.1395,2.704,16.06,1111122 
DISL,ioos:station:DISL:CATA:1,2010-05-01T14:30:00Z,30.3085,-88.1395,2.746,15.46,1111122 
DISL,ioos:station:DISL:CATA:1,2010-05-01T15:00:00Z,30.3085,-88.1395,2.779,15.15,1111122 
DISL,ioos:station:DISL:CATA:1,2010-05-01T15:30:00Z,30.3085,-88.1395,2.797,15.07,1111122 
DISL,ioos:station:DISL:CATA:1,2010-05-01T16:00:00Z,30.3085,-88.1395,2.82,15.07,1111122 
DISL,ioos:station:DISL:CATA:1,2010-05-01T16:30:00Z,30.3085,-88.1395,2.834,15.15,1111122 
DISL,ioos:station:DISL:CATA:1,2010-05-01T17:00:00Z,30.3085,-88.1395,2.832,14.97,1111122 
DISL,ioos:station:DISL:CATA:1,2010-05-01T17:30:00Z,30.3085,-88.1395,2.813,14.94,1111122 
DISL,ioos:station:DISL:CATA:1,2010-05-01T18:00:00Z,30.3085,-88.1395,2.815,15.05,1111122 
DISL,ioos:station:DISL:CATA:1,2010-05-01T18:30:00Z,30.3085,-88.1395,2.795,15.33,1111122 
DISL,ioos:station:DISL:CATA:1,2010-05-01T19:00:00Z,30.3085,-88.1395,2.778,15.5,1111122 
DISL,ioos:station:DISL:CATA:1,2010-05-01T19:30:00Z,30.3085,-88.1395,2.749,16.37,1111122 
DISL,ioos:station:DISL:CATA:1,2010-05-01T20:00:00Z,30.3085,-88.1395,2.72,16.22,1111122 
DISL,ioos:station:DISL:CATA:1,2010-05-01T20:30:00Z,30.3085,-88.1395,2.677,16.39,1111122 
DISL,ioos:station:DISL:CATA:1,2010-05-01T21:00:00Z,30.3085,-88.1395,2.629,16.52,1111122 
DISL,ioos:station:DISL:CATA:1,2010-05-01T21:30:00Z,30.3085,-88.1395,2.587,16.66,1111122 
DISL,ioos:station:DISL:CATA:1,2010-05-01T22:00:00Z,30.3085,-88.1395,2.542,16.61,1111122 
DISL,ioos:station:DISL:CATA:1,2010-05-01T22:30:00Z,30.3085,-88.1395,2.502,16.81,1111122 
DISL,ioos:station:DISL:CATA:1,2010-05-01T23:00:00Z,30.3085,-88.1395,2.463,16.75,1111122 
DISL,ioos:station:DISL:CATA:1,2010-05-01T23:30:00Z,30.3085,-88.1395,2.425,16.44,1111122 
DISL,ioos:station:DISL:CATA:1,2010-05-02T00:00:00Z,30.3085,-88.1395,2.395,16.17,1111122 
DISL,ioos:station:DISL:CATA:1,2010-05-02T00:30:00Z,30.3085,-88.1395,2.368,15.98,1111122 
DISL,ioos:station:DISL:CATA:1,2010-05-02T01:00:00Z,30.3085,-88.1395,2.358,15.86,1111122 
DISL,ioos:station:DISL:CATA:1,2010-05-02T01:30:00Z,30.3085,-88.1395,2.331,15.72,1111122 
DISL,ioos:station:DISL:CATA:1,2010-05-02T02:00:00Z,30.3085,-88.1395,2.31,15.55,1111122 
DISL,ioos:station:DISL:CATA:1,2010-05-02T02:30:00Z,30.3085,-88.1395,2.292,15.42,1111122 
DISL,ioos:station:DISL:CATA:1,2010-05-02T03:00:00Z,30.3085,-88.1395,2.274,15.42,1111122 
DISL,ioos:station:DISL:CATA:1,2010-05-02T03:30:00Z,30.3085,-88.1395,2.26,16.32,1111122 
DISL,ioos:station:DISL:CATA:1,2010-05-02T04:00:00Z,30.3085,-88.1395,2.259,16.13,1111122 
DISL,ioos:station:DISL:CATA:1,2010-05-02T04:30:00Z,30.3085,-88.1395,2.259,15.9,1111122 
DISL,ioos:station:DISL:CATA:1,2010-05-02T05:00:00Z,30.3085,-88.1395,2.261,15.75,1111122 
DISL,ioos:station:DISL:CATA:1,2010-05-02T05:30:00Z,30.3085,-88.1395,2.254,15.62,1111122 
DISL,ioos:station:DISL:CATA:1,2010-05-02T06:00:00Z,30.3085,-88.1395,2.266,15.46,1111122 
DISL,ioos:station:DISL:CATA:1,2010-05-02T06:30:00Z,30.3085,-88.1395,2.272,15.33,1111122 
DISL,ioos:station:DISL:CATA:1,2010-05-02T07:00:00Z,30.3085,-88.1395,2.29,15.22,1111122 
DISL,ioos:station:DISL:CATA:1,2010-05-02T07:30:00Z,30.3085,-88.1395,2.308,15.13,1111122 
DISL,ioos:station:DISL:CATA:1,2010-05-02T08:00:00Z,30.3085,-88.1395,2.34,15.19,1111122 
DISL,ioos:station:DISL:CATA:1,2010-05-02T08:30:00Z,30.3085,-88.1395,2.371,15.17,1111122 
DISL,ioos:station:DISL:CATA:1,2010-05-02T09:00:00Z,30.3085,-88.1395,2.384,15.33,1111122 
DISL,ioos:station:DISL:CATA:1,2010-05-02T09:30:00Z,30.3085,-88.1395,2.417,15.36,1111122 
DISL,ioos:station:DISL:CATA:1,2010-05-02T10:00:00Z,30.3085,-88.1395,2.447,15.32,1111122 
DISL,ioos:station:DISL:CATA:1,2010-05-02T10:30:00Z,30.3085,-88.1395,2.464,15.33,1111122 
DISL,ioos:station:DISL:CATA:1,2010-05-02T11:00:00Z,30.3085,-88.1395,2.508,15.56,1111122 
DISL,ioos:station:DISL:CATA:1,2010-05-02T11:30:00Z,30.3085,-88.1395,2.528,15.81,1111122 
DISL,ioos:station:DISL:CATA:1,2010-05-02T12:00:00Z,30.3085,-88.1395,2.563,15.87,1111122 
DISL,ioos:station:DISL:CATA:1,2010-05-02T12:30:00Z,30.3085,-88.1395,2.591,15.95,1111122 
DISL,ioos:station:DISL:CATA:1,2010-05-02T13:00:00Z,30.3085,-88.1395,2.628,16.05,1111122 
DISL,ioos:station:DISL:CATA:1,2010-05-02T13:30:00Z,30.3085,-88.1395,2.674,16.16,1111122 
DISL,ioos:station:DISL:CATA:1,2010-05-02T14:00:00Z,30.3085,-88.1395,2.714,16.38,1111122 
DISL,ioos:station:DISL:CATA:1,2010-05-02T14:30:00Z,30.3085,-88.1395,2.76,16.58,1111122 
DISL,ioos:station:DISL:CATA:1,2010-05-02T15:00:00Z,30.3085,-88.1395,2.792,16.54,1111122 
DISL,ioos:station:DISL:CATA:1,2010-05-02T15:30:00Z,30.3085,-88.1395,2.81,16.73,1111122 
DISL,ioos:station:DISL:CATA:1,2010-05-02T16:00:00Z,30.3085,-88.1395,2.835,16.44,1111122 
DISL,ioos:station:DISL:CATA:1,2010-05-02T16:30:00Z,30.3085,-88.1395,2.841,16.84,1111122 
DISL,ioos:station:DISL:CATA:1,2010-05-02T17:00:00Z,30.3085,-88.1395,2.857,16.74,1111122 
DISL,ioos:station:DISL:CATA:1,2010-05-02T17:30:00Z,30.3085,-88.1395,2.892,16.58,1111122 
DISL,ioos:station:DISL:CATA:1,2010-05-02T18:00:00Z,30.3085,-88.1395,2.881,16.74,1111122 
DISL,ioos:station:DISL:CATA:1,2010-05-02T18:30:00Z,30.3085,-88.1395,2.894,16.85,1111122 
DISL,ioos:station:DISL:CATA:1,2010-05-02T19:00:00Z,30.3085,-88.1395,2.872,16.96,1111122 
DISL,ioos:station:DISL:CATA:1,2010-05-02T19:30:00Z,30.3085,-88.1395,2.843,17.02,1111122 
DISL,ioos:station:DISL:CATA:1,2010-05-02T20:00:00Z,30.3085,-88.1395,2.816,17.05,1111122 
DISL,ioos:station:DISL:CATA:1,2010-05-02T20:30:00Z,30.3085,-88.1395,2.773,16.9,1111122 
DISL,ioos:station:DISL:CATA:1,2010-05-02T21:00:00Z,30.3085,-88.1395,2.742,16.46,1111122 
DISL,ioos:station:DISL:CATA:1,2010-05-02T21:30:00Z,30.3085,-88.1395,2.717,16.53,1111122 
DISL,ioos:station:DISL:CATA:1,2010-05-02T22:00:00Z,30.3085,-88.1395,2.668,16.6,1111122 
DISL,ioos:station:DISL:CATA:1,2010-05-02T22:30:00Z,30.3085,-88.1395,2.629,16.75,1111122 
DISL,ioos:station:DISL:CATA:1,2010-05-02T23:00:00Z,30.3085,-88.1395,2.597,17.01,1111122 
DISL,ioos:station:DISL:CATA:1,2010-05-02T23:30:00Z,30.3085,-88.1395,2.559,17.17,1111122 
DISL,ioos:station:DISL:CATA:1,2010-05-03T00:00:00Z,30.3085,-88.1395,2.554,17.33,1111122 
DISL,ioos:station:DISL:CATA:1,2010-05-03T00:30:00Z,30.3085,-88.1395,2.533,17.37,1111122 
DISL,ioos:station:DISL:CATA:1,2010-05-03T01:00:00Z,30.3085,-88.1395,2.491,17.29,1111122 
DISL,ioos:station:DISL:CATA:1,2010-05-03T01:30:00Z,30.3085,-88.1395,2.477,16.74,1111122 
DISL,ioos:station:DISL:CATA:1,2010-05-03T02:00:00Z,30.3085,-88.1395,2.452,16.1,1111122 
DISL,ioos:station:DISL:CATA:1,2010-05-03T02:30:00Z,30.3085,-88.1395,2.431,15.9,1111122 
DISL,ioos:station:DISL:CATA:1,2010-05-03T03:00:00Z,30.3085,-88.1395,2.395,15.78,1111122 
DISL,ioos:station:DISL:CATA:1,2010-05-03T03:30:00Z,30.3085,-88.1395,2.39,15.63,1111122 
DISL,ioos:station:DISL:CATA:1,2010-05-03T04:00:00Z,30.3085,-88.1395,2.357,15.42,1111122 
DISL,ioos:station:DISL:CATA:1,2010-05-03T04:30:00Z,30.3085,-88.1395,2.347,15.17,1111122 
DISL,ioos:station:DISL:CATA:1,2010-05-03T05:00:00Z,30.3085,-88.1395,2.333,14.72,1111122 
DISL,ioos:station:DISL:CATA:1,2010-05-03T05:30:00Z,30.3085,-88.1395,2.332,14.41,1111122 
DISL,ioos:station:DISL:CATA:1,2010-05-03T06:00:00Z,30.3085,-88.1395,2.326,14.16,1111122 
DISL,ioos:station:DISL:CATA:1,2010-05-03T06:30:00Z,30.3085,-88.1395,2.343,13.99,1111122 
DISL,ioos:station:DISL:CATA:1,2010-05-03T07:00:00Z,30.3085,-88.1395,2.35,13.82,1111122 
DISL,ioos:station:DISL:CATA:1,2010-05-03T07:30:00Z,30.3085,-88.1395,2.366,13.67,1111122 
DISL,ioos:station:DISL:CATA:1,2010-05-03T08:00:00Z,30.3085,-88.1395,2.377,13.56,1111122 
DISL,ioos:station:DISL:CATA:1,2010-05-03T08:30:00Z,30.3085,-88.1395,2.402,13.52,1111122 
DISL,ioos:station:DISL:CATA:1,2010-05-03T09:00:00Z,30.3085,-88.1395,2.422,13.52,1111122 
DISL,ioos:station:DISL:CATA:1,2010-05-03T09:30:00Z,30.3085,-88.1395,2.441,13.52,1111122 
DISL,ioos:station:DISL:CATA:1,2010-05-03T10:00:00Z,30.3085,-88.1395,2.452,13.42,1111122 
DISL,ioos:station:DISL:CATA:1,2010-05-03T10:30:00Z,30.3085,-88.1395,2.471,13.35,1111122 
DISL,ioos:station:DISL:CATA:1,2010-05-03T11:00:00Z,30.3085,-88.1395,2.491,13.46,1111122 
DISL,ioos:station:DISL:CATA:1,2010-05-03T11:30:00Z,30.3085,-88.1395,2.495,13.46,1111122 
DISL,ioos:station:DISL:CATA:1,2010-05-03T12:00:00Z,30.3085,-88.1395,2.523,13.46,1111122 
DISL,ioos:station:DISL:CATA:1,2010-05-03T12:30:00Z,30.3085,-88.1395,2.558,13.51,1111122 
DISL,ioos:station:DISL:CATA:1,2010-05-03T13:00:00Z,30.3085,-88.1395,2.584,13.58,1111122 
DISL,ioos:station:DISL:CATA:1,2010-05-03T13:30:00Z,30.3085,-88.1395,2.611,13.84,1111122 
DISL,ioos:station:DISL:CATA:1,2010-05-03T14:00:00Z,30.3085,-88.1395,2.692,14.17,1111122 
DISL,ioos:station:DISL:CATA:1,2010-05-03T14:30:00Z,30.3085,-88.1395,2.733,14.17,1111122 
DISL,ioos:station:DISL:CATA:1,2010-05-03T15:00:00Z,30.3085,-88.1395,2.715,14.22,1111122 
DISL,ioos:station:DISL:CATA:1,2010-05-03T15:30:00Z,30.3085,-88.1395,2.741,13.96,1111122 
DISL,ioos:station:DISL:CATA:1,2010-05-03T16:00:00Z,30.3085,-88.1395,2.743,13.76,1111122 
DISL,ioos:station:DISL:CATA:1,2010-05-03T16:30:00Z,30.3085,-88.1395,2.758,13.54,1111122 
DISL,ioos:station:DISL:CATA:1,2010-05-03T17:00:00Z,30.3085,-88.1395,2.763,13.25,1111122 
DISL,ioos:station:DISL:CATA:1,2010-05-03T17:30:00Z,30.3085,-88.1395,2.741,13.2,1111122 
DISL,ioos:station:DISL:CATA:1,2010-05-03T18:00:00Z,30.3085,-88.1395,2.729,13.27,1111122 
DISL,ioos:station:DISL:CATA:1,2010-05-03T18:30:00Z,30.3085,-88.1395,2.703,13.27,1111122 
DISL,ioos:station:DISL:CATA:1,2010-05-03T19:00:00Z,30.3085,-88.1395,2.681,13.33,1111122 
DISL,ioos:station:DISL:CATA:1,2010-05-03T19:30:00Z,30.3085,-88.1395,2.658,13.34,1111122 
DISL,ioos:station:DISL:CATA:1,2010-05-03T20:00:00Z,30.3085,-88.1395,2.654,13.26,1111122 
DISL,ioos:station:DISL:CATA:1,2010-05-03T20:30:00Z,30.3085,-88.1395,2.632,13.25,1111122 
DISL,ioos:station:DISL:CATA:1,2010-05-03T21:00:00Z,30.3085,-88.1395,2.604,11.96,1111122 
DISL,ioos:station:DISL:CATA:1,2010-05-03T21:30:00Z,30.3085,-88.1395,2.576,11.82,1111122 
DISL,ioos:station:DISL:CATA:1,2010-05-03T22:00:00Z,30.3085,-88.1395,2.534,11.74,1111122 
DISL,ioos:station:DISL:CATA:1,2010-05-03T22:30:00Z,30.3085,-88.1395,2.538,11.41,1111122 
DISL,ioos:station:DISL:CATA:1,2010-05-03T23:00:00Z,30.3085,-88.1395,2.526,11.15,1111122 
DISL,ioos:station:DISL:CATA:1,2010-05-03T23:30:00Z,30.3085,-88.1395,2.484,10.81,1111122 
DISL,ioos:station:DISL:CATA:1,2010-05-04T00:00:00Z,30.3085,-88.1395,2.452,10.52,1111122 
DISL,ioos:station:DISL:CATA:1,2010-05-04T00:30:00Z,30.3085,-88.1395,2.443,10.41,1111122 
DISL,ioos:station:DISL:CATA:1,2010-05-04T01:00:00Z,30.3085,-88.1395,2.421,10.31,1111122 
DISL,ioos:station:DISL:CATA:1,2010-05-04T01:30:00Z,30.3085,-88.1395,2.379,10.23,1111122 
DISL,ioos:station:DISL:CATA:1,2010-05-04T02:00:00Z,30.3085,-88.1395,2.335,10.18,1111122 
DISL,ioos:station:DISL:CATA:1,2010-05-04T02:30:00Z,30.3085,-88.1395,2.316,10.04,1111122 
DISL,ioos:station:DISL:CATA:1,2010-05-04T03:00:00Z,30.3085,-88.1395,2.303,9.77,1111122 
DISL,ioos:station:DISL:CATA:1,2010-05-04T03:30:00Z,30.3085,-88.1395,2.278,9.88,1111122 
DISL,ioos:station:DISL:CATA:1,2010-05-04T04:00:00Z,30.3085,-88.1395,2.255,9.79,1111122 
DISL,ioos:station:DISL:CATA:1,2010-05-04T04:30:00Z,30.3085,-88.1395,2.247,9.75,1111122 
DISL,ioos:station:DISL:CATA:1,2010-05-04T05:00:00Z,30.3085,-88.1395,2.249,9.65,1111122 
DISL,ioos:station:DISL:CATA:1,2010-05-04T05:30:00Z,30.3085,-88.1395,2.253,9.5,1111122 
DISL,ioos:station:DISL:CATA:1,2010-05-04T06:00:00Z,30.3085,-88.1395,2.248,9.42,1111122 
DISL,ioos:station:DISL:CATA:1,2010-05-04T06:30:00Z,30.3085,-88.1395,2.236,9.1,1111122 
DISL,ioos:station:DISL:CATA:1,2010-05-04T07:00:00Z,30.3085,-88.1395,2.24,9.16,1111122 
DISL,ioos:station:DISL:CATA:1,2010-05-04T07:30:00Z,30.3085,-88.1395,2.235,9.05,1111122 
DISL,ioos:station:DISL:CATA:1,2010-05-04T08:00:00Z,30.3085,-88.1395,2.22,9.05,1111122 
DISL,ioos:station:DISL:CATA:1,2010-05-04T08:30:00Z,30.3085,-88.1395,2.234,9.04,1111122 
DISL,ioos:station:DISL:CATA:1,2010-05-04T09:00:00Z,30.3085,-88.1395,2.247,9.18,1111122 
DISL,ioos:station:DISL:CATA:1,2010-05-04T09:30:00Z,30.3085,-88.1395,2.251,9.12,1111122 
DISL,ioos:station:DISL:CATA:1,2010-05-04T10:00:00Z,30.3085,-88.1395,2.26,8.83,1111122 
DISL,ioos:station:DISL:CATA:1,2010-05-04T10:30:00Z,30.3085,-88.1395,2.307,8.72,1111122 
DISL,ioos:station:DISL:CATA:1,2010-05-04T11:00:00Z,30.3085,-88.1395,2.327,8.45,1111122 
DISL,ioos:station:DISL:CATA:1,2010-05-04T11:30:00Z,30.3085,-88.1395,2.35,8.46,1111122 
DISL,ioos:station:DISL:CATA:1,2010-05-04T12:00:00Z,30.3085,-88.1395,2.365,8.51,1111122 
DISL,ioos:station:DISL:CATA:1,2010-05-04T12:30:00Z,30.3085,-88.1395,2.396,8.52,1111122 
DISL,ioos:station:DISL:CATA:1,2010-05-04T13:00:00Z,30.3085,-88.1395,2.417,8.34,1111122 
DISL,ioos:station:DISL:CATA:1,2010-05-04T13:30:00Z,30.3085,-88.1395,2.437,8.6,1111122 
DISL,ioos:station:DISL:CATA:1,2010-05-04T14:00:00Z,30.3085,-88.1395,2.457,8.69,1111122 
DISL,ioos:station:DISL:CATA:1,2010-05-04T14:30:00Z,30.3085,-88.1395,2.444,8.71,1111122 
DISL,ioos:station:DISL:CATA:1,2010-05-04T15:00:00Z,30.3085,-88.1395,2.45,8.66,1111122 
DISL,ioos:station:DISL:CATA:1,2010-05-04T15:30:00Z,30.3085,-88.1395,2.488,8.29,1111122 
DISL,ioos:station:DISL:CATA:1,2010-05-04T16:00:00Z,30.3085,-88.1395,2.498,8.39,1111122 
DISL,ioos:station:DISL:CATA:1,2010-05-04T16:30:00Z,30.3085,-88.1395,2.501,9.24,1111122 
DISL,ioos:station:DISL:CATA:1,2010-05-04T17:00:00Z,30.3085,-88.1395,2.517,14.62,1111122 
DISL,ioos:station:DISL:CATA:1,2010-05-04T17:30:00Z,30.3085,-88.1395,2.54,19.53,1111122 
DISL,ioos:station:DISL:CATA:1,2010-05-04T18:00:00Z,30.3085,-88.1395,2.542,21.77,1111122 
DISL,ioos:station:DISL:CATA:1,2010-05-04T18:30:00Z,30.3085,-88.1395,2.535,22.91,1111122 
DISL,ioos:station:DISL:CATA:1,2010-05-04T19:00:00Z,30.3085,-88.1395,2.531,23.28,1111122 
DISL,ioos:station:DISL:CATA:1,2010-05-04T19:30:00Z,30.3085,-88.1395,2.554,23.33,1111122 
DISL,ioos:station:DISL:CATA:1,2010-05-04T20:00:00Z,30.3085,-88.1395,2.542,23.28,1111122 
DISL,ioos:station:DISL:CATA:1,2010-05-04T20:30:00Z,30.3085,-88.1395,2.513,23.52,1111122 
DISL,ioos:station:DISL:CATA:1,2010-05-04T21:00:00Z,30.3085,-88.1395,2.493,23.45,1111122 
DISL,ioos:station:DISL:CATA:1,2010-05-04T21:30:00Z,30.3085,-88.1395,2.488,23.51,1111122 
DISL,ioos:station:DISL:CATA:1,2010-05-04T22:00:00Z,30.3085,-88.1395,2.467,23.61,1111122 
DISL,ioos:station:DISL:CATA:1,2010-05-04T22:30:00Z,30.3085,-88.1395,2.452,23.54,1111122 
DISL,ioos:station:DISL:CATA:1,2010-05-04T23:00:00Z,30.3085,-88.1395,2.432,23.53,1111122 
DISL,ioos:station:DISL:CATA:1,2010-05-04T23:30:00Z,30.3085,-88.1395,2.413,16.88,1111122 
DISL,ioos:station:DISL:CATA:1,2010-05-05T00:00:00Z,30.3085,-88.1395,2.403,9.38,1111122 
DISL,ioos:station:DISL:CATA:1,2010-05-05T00:30:00Z,30.3085,-88.1395,2.389,7.59,1111122 
DISL,ioos:station:DISL:CATA:1,2010-05-05T01:00:00Z,30.3085,-88.1395,2.366,7.44,1111122 
DISL,ioos:station:DISL:CATA:1,2010-05-05T01:30:00Z,30.3085,-88.1395,2.335,7.11,1111122 
DISL,ioos:station:DISL:CATA:1,2010-05-05T02:00:00Z,30.3085,-88.1395,2.303,6.98,1111122 
DISL,ioos:station:DISL:CATA:1,2010-05-05T02:30:00Z,30.3085,-88.1395,2.275,6.73,1111122 
DISL,ioos:station:DISL:CATA:1,2010-05-05T03:00:00Z,30.3085,-88.1395,2.253,6.44,1111122 
DISL,ioos:station:DISL:CATA:1,2010-05-05T03:30:00Z,30.3085,-88.1395,2.225,6.39,1111122 
DISL,ioos:station:DISL:CATA:1,2010-05-05T04:00:00Z,30.3085,-88.1395,2.201,6.37,1111122 
DISL,ioos:station:DISL:CATA:1,2010-05-05T04:30:00Z,30.3085,-88.1395,2.185,6.35,1111122 
DISL,ioos:station:DISL:CATA:1,2010-05-05T05:00:00Z,30.3085,-88.1395,2.175,6.21,1111122 
DISL,ioos:station:DISL:CATA:1,2010-05-05T05:30:00Z,30.3085,-88.1395,2.174,6.06,1111122 
DISL,ioos:station:DISL:CATA:1,2010-05-05T06:00:00Z,30.3085,-88.1395,2.172,6.07,1111122 
DISL,ioos:station:DISL:CATA:1,2010-05-05T06:30:00Z,30.3085,-88.1395,2.175,6.12,1111122 
DISL,ioos:station:DISL:CATA:1,2010-05-05T07:30:00Z,30.3085,-88.1395,2.188,6.01,1111122 
DISL,ioos:station:DISL:CATA:1,2010-05-05T08:00:00Z,30.3085,-88.1395,2.2,5.98,1111122 
DISL,ioos:station:DISL:CATA:1,2010-05-05T08:30:00Z,30.3085,-88.1395,2.203,5.97,1111122 
DISL,ioos:station:DISL:CATA:1,2010-05-05T09:00:00Z,30.3085,-88.1395,2.219,5.73,1111122 
DISL,ioos:station:DISL:CATA:1,2010-05-05T09:30:00Z,30.3085,-88.1395,2.238,5.83,1111122 
DISL,ioos:station:DISL:CATA:1,2010-05-05T10:00:00Z,30.3085,-88.1395,2.251,5.84,1111122 
DISL,ioos:station:DISL:CATA:1,2010-05-05T10:30:00Z,30.3085,-88.1395,2.261,6.0,1111122 
DISL,ioos:station:DISL:CATA:1,2010-05-05T11:00:00Z,30.3085,-88.1395,2.281,6.27,1111122 
DISL,ioos:station:DISL:CATA:1,2010-05-05T11:30:00Z,30.3085,-88.1395,2.317,6.56,1111122 
DISL,ioos:station:DISL:CATA:1,2010-05-05T12:00:00Z,30.3085,-88.1395,2.347,6.93,1111122 
DISL,ioos:station:DISL:CATA:1,2010-05-05T12:30:00Z,30.3085,-88.1395,2.376,7.15,1111122 
DISL,ioos:station:DISL:CATA:1,2010-05-05T13:30:00Z,30.3085,-88.1395,2.417,7.67,1111122 
DISL,ioos:station:DISL:CATA:1,2010-05-05T14:00:00Z,30.3085,-88.1395,2.43,7.81,1111122 
DISL,ioos:station:DISL:CATA:1,2010-05-05T14:30:00Z,30.3085,-88.1395,2.45,7.82,1111122 
DISL,ioos:station:DISL:CATA:1,2010-05-05T15:00:00Z,30.3085,-88.1395,2.47,8.08,1111122 
DISL,ioos:station:DISL:CATA:1,2010-05-05T15:30:00Z,30.3085,-88.1395,2.476,8.56,1111122 
DISL,ioos:station:DISL:CATA:1,2010-05-05T16:00:00Z,30.3085,-88.1395,2.494,9.64,1111122 
DISL,ioos:station:DISL:CATA:1,2010-05-05T16:30:00Z,30.3085,-88.1395,2.499,11.42,1111122 
DISL,ioos:station:DISL:CATA:1,2010-05-05T17:00:00Z,30.3085,-88.1395,2.508,12.4,1111122 
DISL,ioos:station:DISL:CATA:1,2010-05-05T17:30:00Z,30.3085,-88.1395,2.523,13.14,1111122 
DISL,ioos:station:DISL:CATA:1,2010-05-05T18:00:00Z,30.3085,-88.1395,2.524,14.28,1111122 
DISL,ioos:station:DISL:CATA:1,2010-05-05T18:30:00Z,30.3085,-88.1395,2.525,15.39,1111122 
DISL,ioos:station:DISL:CATA:1,2010-05-05T19:00:00Z,30.3085,-88.1395,2.532,15.97,1111122 
DISL,ioos:station:DISL:CATA:1,2010-05-05T19:30:00Z,30.3085,-88.1395,2.521,16.37,1111122 
DISL,ioos:station:DISL:CATA:1,2010-05-05T20:00:00Z,30.3085,-88.1395,2.515,16.63,1111122 
DISL,ioos:station:DISL:CATA:1,2010-05-05T20:30:00Z,30.3085,-88.1395,2.505,16.21,1111122 
DISL,ioos:station:DISL:CATA:1,2010-05-05T21:00:00Z,30.3085,-88.1395,2.491,16.48,1111122 
DISL,ioos:station:DISL:CATA:1,2010-05-05T21:30:00Z,30.3085,-88.1395,2.48,17.0,1111122 
DISL,ioos:station:DISL:CATA:1,2010-05-05T22:00:00Z,30.3085,-88.1395,2.461,16.54,1111122 
DISL,ioos:station:DISL:CATA:1,2010-05-05T22:30:00Z,30.3085,-88.1395,2.443,16.54,1111122 
DISL,ioos:station:DISL:CATA:1,2010-05-05T23:00:00Z,30.3085,-88.1395,2.433,16.77,1111122 
DISL,ioos:station:DISL:CATA:1,2010-05-05T23:30:00Z,30.3085,-88.1395,2.416,16.15,1111122 
DISL,ioos:station:DISL:CATA:1,2010-05-06T00:00:00Z,30.3085,-88.1395,2.397,16.53,1111122 
DISL,ioos:station:DISL:CATA:1,2010-05-06T00:30:00Z,30.3085,-88.1395,2.377,16.28,1111122 
DISL,ioos:station:DISL:CATA:1,2010-05-06T01:00:00Z,30.3085,-88.1395,2.36,15.42,1111122 
DISL,ioos:station:DISL:CATA:1,2010-05-06T01:30:00Z,30.3085,-88.1395,2.352,11.91,1111122 
DISL,ioos:station:DISL:CATA:1,2010-05-06T02:00:00Z,30.3085,-88.1395,2.331,9.52,1111122 
DISL,ioos:station:DISL:CATA:1,2010-05-06T02:30:00Z,30.3085,-88.1395,2.306,7.97,1111122 
DISL,ioos:station:DISL:CATA:1,2010-05-06T03:00:00Z,30.3085,-88.1395,2.282,8.33,1111122 
DISL,ioos:station:DISL:CATA:1,2010-05-06T03:30:00Z,30.3085,-88.1395,2.255,8.26,1111122 
DISL,ioos:station:DISL:CATA:1,2010-05-06T04:00:00Z,30.3085,-88.1395,2.233,7.67,1111122 
DISL,ioos:station:DISL:CATA:1,2010-05-06T04:30:00Z,30.3085,-88.1395,2.216,7.43,1111122 
DISL,ioos:station:DISL:CATA:1,2010-05-06T05:00:00Z,30.3085,-88.1395,2.204,7.13,1111122 
DISL,ioos:station:DISL:CATA:1,2010-05-06T05:30:00Z,30.3085,-88.1395,2.198,6.99,1111122 
DISL,ioos:station:DISL:CATA:1,2010-05-06T06:30:00Z,30.3085,-88.1395,2.197,6.53,1111122 
DISL,ioos:station:DISL:CATA:1,2010-05-06T07:00:00Z,30.3085,-88.1395,2.198,6.31,1111122 
DISL,ioos:station:DISL:CATA:1,2010-05-06T07:30:00Z,30.3085,-88.1395,2.205,6.02,1111122 
DISL,ioos:station:DISL:CATA:1,2010-05-06T08:00:00Z,30.3085,-88.1395,2.198,6.41,1111122 
DISL,ioos:station:DISL:CATA:1,2010-05-06T08:30:00Z,30.3085,-88.1395,2.189,6.84,1111122 
DISL,ioos:station:DISL:CATA:1,2010-05-06T09:00:00Z,30.3085,-88.1395,2.191,6.81,1111122 
DISL,ioos:station:DISL:CATA:1,2010-05-06T09:30:00Z,30.3085,-88.1395,2.211,6.63,1111122 
DISL,ioos:station:DISL:CATA:1,2010-05-06T10:00:00Z,30.3085,-88.1395,2.224,6.41,1111122 
DISL,ioos:station:DISL:CATA:1,2010-05-06T10:30:00Z,30.3085,-88.1395,2.243,6.03,1111122 
DISL,ioos:station:DISL:CATA:1,2010-05-06T11:00:00Z,30.3085,-88.1395,2.262,5.83,1111122 
DISL,ioos:station:DISL:CATA:1,2010-05-06T11:30:00Z,30.3085,-88.1395,2.278,5.76,1111122 
DISL,ioos:station:DISL:CATA:1,2010-05-06T12:00:00Z,30.3085,-88.1395,2.303,5.89,1111122 
DISL,ioos:station:DISL:CATA:1,2010-05-06T12:30:00Z,30.3085,-88.1395,2.312,5.87,1111122 
DISL,ioos:station:DISL:CATA:1,2010-05-06T13:00:00Z,30.3085,-88.1395,2.329,6.11,1111122 
DISL,ioos:station:DISL:CATA:1,2010-05-06T13:30:00Z,30.3085,-88.1395,2.343,6.15,1111122 
DISL,ioos:station:DISL:CATA:1,2010-05-06T14:00:00Z,30.3085,-88.1395,2.364,6.19,1111122 
DISL,ioos:station:DISL:CATA:1,2010-05-06T14:30:00Z,30.3085,-88.1395,2.39,6.29,1111122 
DISL,ioos:station:DISL:CATA:1,2010-05-06T15:00:00Z,30.3085,-88.1395,2.4,6.51,1111122 
DISL,ioos:station:DISL:CATA:1,2010-05-06T15:30:00Z,30.3085,-88.1395,2.405,6.81,1111122 
DISL,ioos:station:DISL:CATA:1,2010-05-06T16:00:00Z,30.3085,-88.1395,2.417,7.15,1111122 